Deer Lake, Canada

2:34 PM NDT on April 25, 2017 (GMT -0230)
Deer Lake

Weather History for CYDF - April, 2013

Change the Weather History Date:

Saturday, April 20, 2013

  Actual Average Record
Temperature  
Mean Temperature 50 °F -  
Max Temperature 68 °F 49 °F 68 °F (2013)
Min Temperature 33 °F 31 °F 7 °F (2017)
Degree Days  
Heating Degree Days 14    
Moisture  
Dew Point 47 °F    
Average Humidity 89    
Maximum Humidity 100    
Minimum Humidity 62    
Precipitation  
Precipitation 0.08 in 0.09 in - ()
Sea Level Pressure  
Sea Level Pressure 29.70 in    
Wind  
Wind Speed 7 mph ()    
Max Wind Speed 28 mph    
Max Gust Speed 37 mph    
Visibility 10.9 miles    
Events Rain    
Averages and records for this station are not official NWS values.
T = Trace of Precipitation, MM = Missing Value Source: Averaged Metar Reports

Daily Weather History Graph

Daily Weather History Graph

Search for Another Location

Airport or City:

Trip Planner

Search our weather history database for the weather conditions in past years. The results will help you decide how hot, cold, wet, or windy it might be!

Date:

Astronomy

Apr. 20, 2013 Rise Set
Actual Time 6:17 AM NDT 8:19 PM NDT
Civil Twilight 5:43 AM NDT 8:54 PM NDT
Nautical Twilight 5:01 AM NDT 9:36 PM NDT
Astronomical Twilight 4:14 AM NDT 10:24 PM NDT
Moon 2:31 PM NDT (4/20) 3:33 AM NDT (4/20)
Length of Visible Light 15h 10m
Length of Day
14h 02m
Waxing Gibbous, 70% of the Moon is Illuminated
Apr 20
Waxing Gibbous
Apr 25
Full
May 2
Last Quarter
May 9
New
May 18
First Quarter

Hourly Weather History & Observations

Time (NDT) Temp. Windchill Dew Point Humidity Pressure Visibility Wind Dir Wind Speed Gust Speed Precip Events Conditions
12:30 AM 33.8 °F - 33.8 °F 100% 29.88 in 4.0 mi NNE 2.3 mph - N/A   Light Drizzle
1:30 AM 33.8 °F - 33.8 °F 100% 29.86 in 6.0 mi Calm Calm - N/A   Light Drizzle
2:30 AM 33.8 °F - 33.8 °F 100% 29.83 in 8.0 mi Calm Calm - N/A   Overcast
3:30 AM 34 °F - 34 °F 100% 29.82 in 7 mi West 2.3 mph - -   Partly Cloudy
3:30 AM 33.8 °F - 33.8 °F 100% 29.82 in 8.0 mi Variable 2.3 mph - N/A   Overcast
4:30 AM 35.6 °F - 35.6 °F 100% 29.80 in 10.0 mi Calm Calm - N/A   Overcast
5:30 AM 35.6 °F 31.7 °F 35.6 °F 100% 29.78 in 15.0 mi NE 4.6 mph - N/A   Overcast
7:05 AM 37.4 °F - 37.4 °F 100% 29.75 in 2.0 mi Variable 2.3 mph - N/A Rain Light Rain Showers
7:14 AM 37.4 °F - 37.4 °F 100% 29.75 in 8.0 mi NNE 2.3 mph - N/A Rain Light Rain Showers
7:30 AM 37.4 °F 33.8 °F 37.4 °F 100% 29.74 in 8.0 mi NE 4.6 mph - N/A Rain Light Rain Showers
8:30 AM 42.8 °F 38.6 °F 42.8 °F 100% 29.73 in 12.0 mi NE 6.9 mph - N/A Rain Rain Showers
9:30 AM 51 °F - 51 °F 99% 29.72 in 15 mi NW 5.8 mph - - Rain Light Rain Showers
9:30 AM 51.8 °F - 51.8 °F 100% 29.72 in 15.0 mi WNW 4.6 mph - N/A Rain Light Rain Showers
10:30 AM 59.0 °F - 55.4 °F 88% 29.70 in 15.0 mi SW 3.5 mph - N/A   Overcast
11:30 AM 60.8 °F - 55.4 °F 82% 29.69 in 15.0 mi South 6.9 mph - N/A   Overcast
12:30 PM 60.8 °F - 55.4 °F 82% 29.67 in 15.0 mi Variable 2.3 mph - N/A   Overcast
1:30 PM 64.4 °F - 59.0 °F 83% 29.64 in 15.0 mi SW 23.0 mph 33.4 mph N/A   Mostly Cloudy
2:30 PM 64.4 °F - 57.2 °F 77% 29.63 in 15.0 mi SW 23.0 mph 31.1 mph N/A   Mostly Cloudy
3:30 PM 67 °F - 57 °F 62% 29.61 in 15 mi SW 19.6 mph - -   Partly Cloudy
3:30 PM 68.0 °F - 57.2 °F 68% 29.61 in 15.0 mi SW 21.9 mph 28.8 mph N/A   Mostly Cloudy
4:30 PM 64.4 °F - 53.6 °F 68% 29.60 in 15.0 mi SSW 27.6 mph 36.8 mph N/A   Overcast
5:30 PM 60.8 °F - 51.8 °F 72% 29.61 in 15.0 mi South 16.1 mph 24.2 mph N/A   Overcast
6:30 PM 60.8 °F - 51.8 °F 72% 29.59 in 15.0 mi South 18.4 mph - N/A   Overcast
7:30 PM 59.0 °F - 51.8 °F 77% 29.59 in 10.0 mi SSW 24.2 mph 35.7 mph N/A   Overcast
7:39 PM 57.2 °F - 53.6 °F 88% 29.60 in 8.0 mi SSW 24.2 mph 33.4 mph N/A Rain Light Rain
8:30 PM 55.4 °F - 51.8 °F 88% 29.61 in 8.0 mi SSW 17.3 mph 25.3 mph N/A Rain Light Rain
9:30 PM 54 °F - 53 °F 93% 29.65 in 7 mi SW 16.1 mph - - Rain Light Rain
9:30 PM 53.6 °F - 51.8 °F 94% 29.65 in 8.0 mi SW 17.3 mph - N/A Rain Light Rain
10:30 PM 51.8 °F - 50.0 °F 94% 29.69 in 8.0 mi WSW 13.8 mph 20.7 mph N/A Rain Light Rain
11:30 PM 42.8 °F 35.8 °F 39.2 °F 87% 29.76 in 10.0 mi West 13.8 mph 21.9 mph N/A Rain Light Rain